User: anonymous   Login
Location: Pine Mountain Observatory
(43.7910°N, 120.9377°W)
Time: 23:55:52
(UTC-08:00)
Language:

Cosmos 1076 Rocket - Orbit

View from above orbital plane
View from above orbital plane
View from above satellite
View from above satellite

Ground track
Ground track

The orbit data is extracted from the following two-line orbital elements,

1 11267U 79011B   17017.48602644  .00000094  00000-0  73338-5 0  9997
2 11267  82.5243  11.7546 0017323  16.2355 343.9414 14.88813933 53043
Epoch (UTC): 17 January 2017 11:39:52
Eccentricity: 0.0017323
inclination: 82.5243°
perigee height: 589 km
apogee height: 614 km
right ascension of ascending node: 11.7546°
argument of perigee: 16.2355°
revolutions per day: 14.88813933
mean anomaly at epoch: 343.9414°
orbit number at epoch: 5304

The dashed part of the orbit path shows where the satellite is in the earth's shadow,  

DLR